Time,TemperatureF,DewpointF,PressureIn,WindDirection,WindDirectionDegrees,WindSpeedMPH,WindSpeedGustMPH,Humidity,HourlyPrecipIn,Conditions,Clouds,dailyrainin,SoftwareType,DateUTC
2013-07-31 00:03:00,63.5,59.0,29.43,SSW,193,3.0,3.0,86,0.00,,,0.00,weatherlink.com 1.10,2013-07-31 04:03:00,
2013-07-31 00:18:00,63.3,59.0,29.43,SSE,158,0.0,1.0,86,0.00,,,0.00,weatherlink.com 1.10,2013-07-31 04:18:00,
2013-07-31 00:33:00,63.2,59.0,29.43,NNW,338,0.0,2.0,87,0.00,,,0.00,weatherlink.com 1.10,2013-07-31 04:33:00,
2013-07-31 00:48:00,63.1,59.0,29.43,ENE,60,0.0,1.0,87,0.00,,,0.00,weatherlink.com 1.10,2013-07-31 04:48:00,
2013-07-31 01:03:00,62.9,59.0,29.43,ENE,59,0.0,1.0,87,0.00,,,0.00,weatherlink.com 1.10,2013-07-31 05:03:00,
2013-07-31 01:18:00,62.2,59.0,29.42,ENE,59,0.0,0.0,88,0.00,,,0.00,weatherlink.com 1.10,2013-07-31 05:18:00,
2013-07-31 01:33:00,62.0,59.0,29.42,ENE,59,0.0,0.0,88,0.00,,,0.00,weatherlink.com 1.10,2013-07-31 05:33:00,
2013-07-31 01:48:00,61.8,58.0,29.42,ENE,60,0.0,1.0,88,0.00,,,0.00,weatherlink.com 1.10,2013-07-31 05:48:00,
2013-07-31 02:08:00,61.8,59.0,29.41,ENE,61,0.0,1.0,89,0.00,,,0.00,weatherlink.com 1.10,2013-07-31 06:08:00,
2013-07-31 02:18:00,62.0,59.0,29.41,ENE,60,0.0,1.0,89,0.00,,,0.00,weatherlink.com 1.10,2013-07-31 06:18:00,
2013-07-31 02:34:00,62.1,59.0,29.41,ENE,59,0.0,1.0,89,0.00,,,0.00,weatherlink.com 1.10,2013-07-31 06:34:00,
2013-07-31 02:48:00,62.2,59.0,29.41,ENE,61,0.0,1.0,88,0.00,,,0.00,weatherlink.com 1.10,2013-07-31 06:48:00,
2013-07-31 03:03:00,62.4,59.0,29.41,ENE,61,0.0,1.0,88,0.00,,,0.00,weatherlink.com 1.10,2013-07-31 07:03:00,
2013-07-31 03:18:00,62.3,59.0,29.41,ENE,61,0.0,1.0,89,0.00,,,0.00,weatherlink.com 1.10,2013-07-31 07:18:00,
2013-07-31 03:33:00,62.3,59.0,29.40,ENE,61,0.0,1.0,89,0.00,,,0.00,weatherlink.com 1.10,2013-07-31 07:33:00,
2013-07-31 03:48:00,62.4,59.0,29.41,ENE,61,0.0,0.0,89,0.00,,,0.00,weatherlink.com 1.10,2013-07-31 07:48:00,
2013-07-31 04:03:00,62.3,59.0,29.40,ENE,61,0.0,0.0,89,0.00,,,0.00,weatherlink.com 1.10,2013-07-31 08:03:00,
2013-07-31 04:18:00,62.3,59.0,29.40,ENE,61,0.0,0.0,89,0.00,,,0.00,weatherlink.com 1.10,2013-07-31 08:18:00,
2013-07-31 04:33:00,62.7,60.0,29.40,SE,127,0.0,2.0,89,0.00,,,0.00,weatherlink.com 1.10,2013-07-31 08:33:00,
2013-07-31 04:48:00,63.4,60.0,29.40,South,174,0.0,1.0,89,0.00,,,0.00,weatherlink.com 1.10,2013-07-31 08:48:00,
2013-07-31 05:03:00,63.9,60.0,29.40,SSE,160,0.0,4.0,88,0.00,,,0.00,weatherlink.com 1.10,2013-07-31 09:03:00,
2013-07-31 05:18:00,64.4,60.0,29.40,SSW,208,4.0,6.0,86,0.00,,,0.00,weatherlink.com 1.10,2013-07-31 09:18:00,
2013-07-31 05:33:00,64.3,60.0,29.41,SW,236,2.0,7.0,86,0.00,,,0.00,weatherlink.com 1.10,2013-07-31 09:33:00,
2013-07-31 05:48:00,64.0,60.0,29.41,SW,236,2.0,7.0,86,0.00,,,0.00,weatherlink.com 1.10,2013-07-31 09:48:00,
2013-07-31 06:03:00,63.7,60.0,29.41,SW,217,1.0,3.0,86,0.00,,,0.00,weatherlink.com 1.10,2013-07-31 10:03:00,
2013-07-31 06:18:00,63.5,60.0,29.41,West,271,2.0,5.0,87,0.00,,,0.00,weatherlink.com 1.10,2013-07-31 10:18:00,
2013-07-31 06:33:00,63.3,59.0,29.41,WSW,256,2.0,4.0,87,0.00,,,0.00,weatherlink.com 1.10,2013-07-31 10:33:00,
2013-07-31 06:48:00,63.4,60.0,29.42,WSW,245,3.0,5.0,87,0.00,,,0.00,weatherlink.com 1.10,2013-07-31 10:48:00,
2013-07-31 07:03:00,62.8,59.0,29.42,West,280,0.0,3.0,88,0.00,,,0.00,weatherlink.com 1.10,2013-07-31 11:03:00,
2013-07-31 07:18:00,62.8,60.0,29.41,WSW,242,1.0,2.0,89,0.00,,,0.00,weatherlink.com 1.10,2013-07-31 11:18:00,
2013-07-31 07:33:00,62.5,59.0,29.40,WSW,242,0.0,1.0,89,0.00,,,0.00,weatherlink.com 1.10,2013-07-31 11:33:00,
2013-07-31 07:48:00,62.3,59.0,29.40,ENE,68,0.0,3.0,90,0.00,,,0.00,weatherlink.com 1.10,2013-07-31 11:48:00,
2013-07-31 08:03:00,62.1,59.0,29.40,ENE,64,2.0,2.0,90,0.01,,,0.01,weatherlink.com 1.10,2013-07-31 12:03:00,
2013-07-31 08:18:00,61.8,59.0,29.40,ENE,64,0.0,1.0,90,0.02,,,0.02,weatherlink.com 1.10,2013-07-31 12:18:00,
2013-07-31 08:33:00,61.8,59.0,29.40,ENE,63,0.0,1.0,91,0.04,,,0.04,weatherlink.com 1.10,2013-07-31 12:33:00,
2013-07-31 08:48:00,61.8,59.0,29.40,West,259,1.0,2.0,91,0.06,,,0.06,weatherlink.com 1.10,2013-07-31 12:48:00,
2013-07-31 09:03:00,62.1,60.0,29.40,West,260,0.0,2.0,92,0.05,,,0.06,weatherlink.com 1.10,2013-07-31 13:03:00,
2013-07-31 09:18:00,62.4,60.0,29.40,WNW,301,1.0,1.0,91,0.05,,,0.07,weatherlink.com 1.10,2013-07-31 13:18:00,
2013-07-31 09:33:00,62.2,60.0,29.41,NE,41,1.0,2.0,91,0.03,,,0.07,weatherlink.com 1.10,2013-07-31 13:33:00,
2013-07-31 09:48:00,62.2,60.0,29.42,WNW,284,1.0,3.0,92,0.06,,,0.12,weatherlink.com 1.10,2013-07-31 13:48:00,
2013-07-31 10:03:00,62.1,60.0,29.41,NNW,338,1.0,2.0,92,0.13,,,0.19,weatherlink.com 1.10,2013-07-31 14:03:00,
2013-07-31 10:18:00,62.2,60.0,29.41,NE,40,0.0,1.0,92,0.20,,,0.27,weatherlink.com 1.10,2013-07-31 14:18:00,
2013-07-31 10:33:00,62.2,60.0,29.40,NE,41,0.0,1.0,92,0.25,,,0.32,weatherlink.com 1.10,2013-07-31 14:33:00,
2013-07-31 10:48:00,62.4,60.0,29.39,NE,43,0.0,1.0,92,0.26,,,0.38,weatherlink.com 1.10,2013-07-31 14:48:00,
2013-07-31 11:03:00,62.9,61.0,29.39,NE,43,0.0,1.0,92,0.23,,,0.42,weatherlink.com 1.10,2013-07-31 15:03:00,
2013-07-31 11:18:00,62.8,61.0,29.39,NE,56,0.0,3.0,92,0.22,,,0.49,weatherlink.com 1.10,2013-07-31 15:18:00,
2013-07-31 11:34:00,63.0,61.0,29.39,ENE,63,0.0,1.0,92,0.23,,,0.55,weatherlink.com 1.10,2013-07-31 15:34:00,
2013-07-31 11:49:00,63.7,61.0,29.38,NNE,30,0.0,3.0,92,0.19,,,0.57,weatherlink.com 1.10,2013-07-31 15:49:00,
2013-07-31 12:04:00,64.5,62.0,29.37,ESE,117,1.0,1.0,92,0.14,,,0.57,weatherlink.com 1.10,2013-07-31 16:04:00,
2013-07-31 12:19:00,65.8,63.0,29.37,East,101,1.0,2.0,91,0.07,,,0.57,weatherlink.com 1.10,2013-07-31 16:19:00,
2013-07-31 12:34:00,67.4,65.0,29.36,SSW,200,2.0,4.0,90,0.01,,,0.57,weatherlink.com 1.10,2013-07-31 16:34:00,
2013-07-31 12:49:00,68.4,65.0,29.36,SSE,163,1.0,4.0,88,0.00,,,0.57,weatherlink.com 1.10,2013-07-31 16:49:00,
2013-07-31 13:04:00,67.7,64.0,29.36,SSE,165,2.0,4.0,87,0.00,,,0.57,weatherlink.com 1.10,2013-07-31 17:04:00,
2013-07-31 13:19:00,66.9,63.0,29.36,South,177,0.0,3.0,88,0.00,,,0.57,weatherlink.com 1.10,2013-07-31 17:19:00,
2013-07-31 13:34:00,67.0,63.0,29.35,South,183,1.0,4.0,88,0.00,,,0.57,weatherlink.com 1.10,2013-07-31 17:34:00,
2013-07-31 13:49:00,67.2,64.0,29.35,SSW,198,2.0,6.0,88,0.00,,,0.57,weatherlink.com 1.10,2013-07-31 17:49:00,
2013-07-31 14:04:00,67.5,64.0,29.34,ESE,123,2.0,2.0,88,0.00,,,0.57,weatherlink.com 1.10,2013-07-31 18:04:00,
2013-07-31 14:19:00,67.6,64.0,29.34,SSE,150,2.0,3.0,87,0.00,,,0.57,weatherlink.com 1.10,2013-07-31 18:19:00,
2013-07-31 14:34:00,67.9,64.0,29.33,SSE,167,2.0,5.0,86,0.00,,,0.57,weatherlink.com 1.10,2013-07-31 18:34:00,
2013-07-31 14:49:00,68.4,64.0,29.32,SSE,155,2.0,6.0,86,0.00,,,0.57,weatherlink.com 1.10,2013-07-31 18:49:00,
2013-07-31 15:04:00,69.3,65.0,29.32,SSE,163,0.0,4.0,86,0.00,,,0.57,weatherlink.com 1.10,2013-07-31 19:04:00,
2013-07-31 15:19:00,69.0,64.0,29.32,South,172,2.0,6.0,85,0.00,,,0.57,weatherlink.com 1.10,2013-07-31 19:19:00,
2013-07-31 15:34:00,68.8,64.0,29.31,SSW,201,1.0,5.0,84,0.00,,,0.57,weatherlink.com 1.10,2013-07-31 19:34:00,
2013-07-31 15:49:00,68.2,64.0,29.31,SSW,205,2.0,5.0,85,0.00,,,0.57,weatherlink.com 1.10,2013-07-31 19:49:00,
2013-07-31 16:04:00,68.2,64.0,29.30,South,188,0.0,3.0,86,0.00,,,0.57,weatherlink.com 1.10,2013-07-31 20:04:00,
2013-07-31 16:19:00,68.6,64.0,29.29,South,176,2.0,4.0,85,0.00,,,0.57,weatherlink.com 1.10,2013-07-31 20:19:00,
2013-07-31 16:34:00,68.8,64.0,29.29,South,181,3.0,4.0,85,0.00,,,0.57,weatherlink.com 1.10,2013-07-31 20:34:00,
2013-07-31 16:49:00,67.8,64.0,29.29,South,170,0.0,4.0,86,0.00,,,0.57,weatherlink.com 1.10,2013-07-31 20:49:00,
2013-07-31 17:04:00,67.6,64.0,29.29,SSE,160,0.0,2.0,87,0.00,,,0.57,weatherlink.com 1.10,2013-07-31 21:04:00,
2013-07-31 17:19:00,67.4,64.0,29.28,SSW,198,0.0,1.0,88,0.00,,,0.57,weatherlink.com 1.10,2013-07-31 21:19:00,
2013-07-31 17:34:00,67.3,64.0,29.27,SSE,152,0.0,2.0,88,0.00,,,0.57,weatherlink.com 1.10,2013-07-31 21:34:00,
2013-07-31 17:49:00,66.5,63.0,29.27,SSW,198,2.0,5.0,89,0.00,,,0.57,weatherlink.com 1.10,2013-07-31 21:49:00,
2013-07-31 18:04:00,66.2,63.0,29.27,South,174,0.0,4.0,90,0.00,,,0.57,weatherlink.com 1.10,2013-07-31 22:04:00,
2013-07-31 18:19:00,66.1,63.0,29.27,South,185,1.0,3.0,90,0.00,,,0.57,weatherlink.com 1.10,2013-07-31 22:19:00,
2013-07-31 18:34:00,66.0,63.0,29.26,South,169,1.0,5.0,90,0.00,,,0.57,weatherlink.com 1.10,2013-07-31 22:34:00,
2013-07-31 18:49:00,66.1,63.0,29.26,SSW,201,1.0,2.0,89,0.00,,,0.57,weatherlink.com 1.10,2013-07-31 22:49:00,
2013-07-31 19:04:00,66.1,63.0,29.26,SSW,194,0.0,1.0,89,0.00,,,0.57,weatherlink.com 1.10,2013-07-31 23:04:00,
2013-07-31 19:19:00,66.1,63.0,29.26,SSW,195,0.0,1.0,89,0.00,,,0.57,weatherlink.com 1.10,2013-07-31 23:19:00,
2013-07-31 19:34:00,66.3,63.0,29.26,SSW,195,0.0,0.0,89,0.00,,,0.57,weatherlink.com 1.10,2013-07-31 23:34:00,
2013-07-31 19:49:00,66.2,63.0,29.26,SSW,195,0.0,0.0,89,0.00,,,0.57,weatherlink.com 1.10,2013-07-31 23:49:00,
2013-07-31 20:04:00,66.2,63.0,29.26,SSW,194,0.0,0.0,89,0.00,,,0.57,weatherlink.com 1.10,2013-08-01 00:04:00,
2013-07-31 20:19:00,66.2,63.0,29.26,SSW,195,0.0,1.0,89,0.00,,,0.57,weatherlink.com 1.10,2013-08-01 00:19:00,
2013-07-31 20:34:00,66.1,63.0,29.26,SSW,195,0.0,1.0,90,0.00,,,0.57,weatherlink.com 1.10,2013-08-01 00:34:00,
2013-07-31 20:50:00,66.0,63.0,29.25,SSW,195,0.0,1.0,90,0.00,,,0.57,weatherlink.com 1.10,2013-08-01 00:50:00,
2013-07-31 21:05:00,66.0,63.0,29.25,SSW,195,0.0,1.0,90,0.00,,,0.57,weatherlink.com 1.10,2013-08-01 01:05:00,
2013-07-31 21:20:00,65.7,63.0,29.24,SSW,195,0.0,1.0,90,0.00,,,0.57,weatherlink.com 1.10,2013-08-01 01:20:00,
2013-07-31 21:35:00,65.0,62.0,29.24,SSW,195,0.0,0.0,90,0.00,,,0.57,weatherlink.com 1.10,2013-08-01 01:35:00,
2013-07-31 21:50:00,64.4,62.0,29.23,SSW,195,0.0,0.0,91,0.00,,,0.57,weatherlink.com 1.10,2013-08-01 01:50:00,
2013-07-31 22:05:00,64.1,62.0,29.24,SSW,195,0.0,0.0,92,0.00,,,0.57,weatherlink.com 1.10,2013-08-01 02:05:00,
2013-07-31 22:20:00,63.9,62.0,29.23,SSW,195,0.0,0.0,92,0.00,,,0.57,weatherlink.com 1.10,2013-08-01 02:20:00,
2013-07-31 22:35:00,63.8,62.0,29.23,SSW,195,0.0,0.0,92,0.00,,,0.57,weatherlink.com 1.10,2013-08-01 02:35:00,
2013-07-31 22:50:00,64.0,62.0,29.23,SSW,195,0.0,1.0,93,0.00,,,0.57,weatherlink.com 1.10,2013-08-01 02:50:00,
2013-07-31 23:05:00,64.3,62.0,29.23,South,183,2.0,2.0,93,0.00,,,0.57,weatherlink.com 1.10,2013-08-01 03:05:00,
2013-07-31 23:20:00,64.5,62.0,29.22,WSW,245,2.0,2.0,92,0.00,,,0.57,weatherlink.com 1.10,2013-08-01 03:20:00,
2013-07-31 23:35:00,64.4,62.0,29.22,SW,217,1.0,3.0,92,0.00,,,0.57,weatherlink.com 1.10,2013-08-01 03:35:00,
2013-07-31 23:50:00,64.3,62.0,29.21,SW,217,0.0,1.0,92,0.00,,,0.57,weatherlink.com 1.10,2013-08-01 03:50:00,